Theta_e
290 289 288 288 288 287 287 286 287 287 288 287 287 287 286 286 286 286 286 286 285 287 286 285 285 285 285 285 285 285 285 285 285 285 286 286 286 290 296 299 302 305 308 311 313 315 316 317 318 319 320 319 316 316 317 318 319 320 320 321 322 323 322 322 322 322 322 323 323 324 323 324 324 325 326 328 329 330 331 332 334 338 339 340 341
290 289 289 288 287 287 287 286 286 287 287 287 286 286 286 285 285 286 285 285 285 287 285 285 284 285 285 285 285 285 285 285 285 285 285 285 286 288 293 297 300 304 306 309 311 313 314 315 316 318 318 317 315 316 316 317 318 319 319 319 320 321 322 321 321 321 320 321 322 322 323 323 324 325 325 326 327 328 329 330 331 332 336 339 340
289 289 288 288 287 286 286 286 286 286 287 287 287 286 286 285 286 285 285 284 284 285 285 284 283 284 285 284 284 284 284 285 285 285 285 285 285 286 288 294 297 300 303 307 309 311 312 313 314 316 317 314 314 315 316 317 317 318 318 317 317 319 321 321 321 319 319 318 319 320 321 322 322 322 323 323 324 324 325 326 329 330 331 334 337
289 288 288 287 287 286 285 285 285 285 287 286 286 286 286 286 286 285 284 284 284 284 285 283 283 283 283 283 284 284 284 284 284 285 285 285 285 285 286 289 294 297 300 304 308 309 309 311 313 314 312 311 312 313 315 316 317 317 316 315 316 317 319 319 319 318 318 317 317 318 319 319 319 320 321 321 322 323 323 323 324 326 329 330 332
289 289 290 287 286 285 285 286 286 286 286 286 286 286 286 285 286 285 283 283 284 284 285 283 282 283 283 283 283 284 284 284 284 284 284 284 284 285 285 288 288 292 296 300 303 306 306 307 309 309 309 308 310 312 314 315 314 314 314 314 315 317 318 318 317 316 317 316 316 316 316 317 317 318 319 319 320 321 322 323 323 324 325 328 330
289 288 288 287 286 285 285 285 285 285 286 286 285 285 285 285 284 284 287 283 283 283 282 282 282 282 282 283 283 283 283 283 283 283 284 284 284 285 285 285 286 287 291 296 299 302 305 306 305 305 305 306 308 310 311 312 312 313 313 313 314 315 316 316 316 316 316 315 315 314 315 315 316 317 317 318 319 320 321 321 323 324 324 325 327
289 288 287 287 286 285 284 285 285 286 285 285 284 285 285 284 283 282 282 282 282 284 282 282 282 282 282 283 282 283 283 283 283 283 283 284 284 284 285 285 286 288 291 289 293 297 301 302 303 304 305 305 306 307 309 310 310 311 311 311 312 314 314 314 314 314 314 314 313 314 314 315 315 316 317 317 318 318 319 319 320 322 324 325 325
289 288 287 286 286 285 284 284 285 285 285 284 285 284 284 284 284 282 282 282 282 281 282 281 282 282 282 282 282 284 282 282 282 283 284 284 284 284 285 286 287 290 293 289 289 291 297 300 301 302 302 302 303 306 307 309 309 310 310 310 311 312 312 312 313 313 313 312 312 313 313 314 315 315 316 316 317 317 317 318 319 319 321 324 326
288 288 287 286 285 285 284 285 285 284 284 284 283 284 284 284 283 284 282 281 281 281 281 281 282 282 282 281 282 283 281 282 282 284 286 283 283 283 284 285 289 292 287 287 287 286 291 296 298 299 299 300 301 304 305 307 308 308 308 309 310 311 310 311 311 311 311 311 312 312 312 313 314 314 315 316 316 317 317 318 318 319 319 320 323
288 287 287 286 285 285 284 284 284 284 284 283 283 284 283 282 282 282 282 281 280 280 281 281 282 282 282 281 281 281 282 281 283 288 282 282 282 283 284 284 285 285 285 284 284 285 285 289 294 294 295 297 299 301 303 304 304 305 307 309 309 310 310 309 309 310 310 310 311 311 312 313 313 314 315 315 316 316 317 317 317 318 319 320 321
288 287 286 286 285 284 284 284 284 284 283 283 283 283 282 281 282 281 282 281 281 281 281 282 281 281 282 281 281 281 281 283 284 282 282 282 284 286 283 283 282 283 283 283 284 284 284 285 284 285 286 295 296 298 299 301 301 302 305 308 309 309 309 309 309 309 309 310 311 311 312 313 314 314 314 314 315 316 316 317 317 318 319 319 320
287 286 286 286 285 284 284 284 284 283 283 283 282 282 281 281 281 282 282 282 281 281 280 280 280 279 282 281 281 281 281 283 282 282 283 281 281 283 281 283 281 281 283 283 283 283 284 284 286 284 285 289 294 294 296 297 296 299 303 306 308 308 308 308 308 308 308 310 311 311 312 313 313 314 314 315 314 315 315 316 317 317 318 319 320
287 286 286 286 285 284 283 283 283 283 283 283 283 281 281 282 283 283 280 279 279 280 280 280 279 278 279 279 280 281 285 284 281 281 281 281 280 280 281 282 281 282 282 283 282 283 284 284 284 284 284 283 286 291 292 293 292 296 301 303 305 306 306 307 307 308 308 309 310 311 312 312 312 313 313 313 314 315 315 316 316 317 316 317 318
287 286 286 285 284 284 283 283 283 283 283 282 281 284 282 282 282 279 280 279 278 279 280 278 278 277 277 278 278 279 283 280 281 280 281 281 281 281 281 281 281 282 282 282 282 283 283 284 283 284 284 284 284 284 284 285 287 294 298 300 302 304 305 306 307 308 308 308 309 310 310 311 311 312 312 313 313 313 314 315 316 316 317 317 317
287 286 285 285 284 284 284 283 283 283 282 282 282 282 281 282 280 280 279 280 280 281 279 278 277 277 278 278 276 276 281 278 279 280 280 280 281 280 282 281 281 281 282 282 282 282 283 283 282 282 283 283 283 283 283 286 287 290 293 295 296 299 303 305 306 307 307 307 309 309 309 309 310 311 311 312 312 313 313 313 314 315 315 316 317
286 286 286 285 284 284 284 283 283 283 282 282 281 281 281 281 280 281 280 279 277 279 281 279 278 277 276 277 275 277 276 277 276 279 279 279 279 279 280 281 280 280 282 281 282 282 282 282 282 282 283 282 282 282 283 283 287 289 290 290 291 296 299 303 304 306 306 308 306 306 306 307 309 309 310 310 311 311 312 312 312 312 313 314 315
286 286 286 285 284 284 283 283 283 283 282 282 282 282 281 281 281 281 279 279 278 277 279 279 279 280 278 276 275 277 275 275 276 276 276 278 279 279 283 281 279 281 280 280 280 281 281 281 281 281 281 282 281 282 282 282 282 286 285 288 290 293 295 300 303 304 304 304 304 305 306 307 307 308 308 309 309 310 310 311 311 312 313 313 313
286 285 285 285 284 284 283 283 282 283 282 282 281 281 281 281 281 281 278 278 279 278 277 280 280 280 278 276 277 275 275 275 276 275 277 278 278 279 278 278 279 279 279 279 280 280 282 281 281 281 281 280 281 281 281 281 283 282 283 286 291 293 294 296 300 301 301 302 303 305 305 305 305 306 306 307 308 309 309 310 310 311 312 312 313
285 285 285 284 284 283 283 283 283 282 282 281 281 281 281 281 281 280 279 281 279 277 278 277 277 278 278 278 280 279 277 276 274 275 274 275 276 277 277 278 278 278 279 279 279 279 279 281 280 280 280 280 280 280 280 281 284 286 287 289 291 293 294 294 295 296 298 300 303 303 304 304 304 305 305 306 307 307 308 309 309 310 311 311 312
285 285 285 284 284 283 283 282 282 282 282 281 281 281 281 281 281 280 280 280 279 279 277 277 277 277 279 278 279 278 277 277 276 275 275 273 275 276 276 276 277 277 279 278 278 278 278 278 279 279 279 280 280 280 280 280 280 280 282 288 290 292 293 293 293 293 295 296 298 300 302 303 303 304 304 305 305 306 307 308 308 309 310 310 311
286 285 284 284 284 283 282 282 282 282 283 281 280 280 280 280 280 279 280 280 278 278 278 277 277 278 277 276 276 275 276 276 277 276 275 273 274 274 275 276 277 278 278 277 278 278 279 279 279 281 281 281 279 279 280 280 280 280 284 288 290 291 292 293 292 293 293 293 295 297 300 302 302 303 303 304 304 305 306 306 307 308 309 310 310
285 284 284 284 284 283 283 282 282 282 282 280 280 280 280 280 280 280 280 279 279 279 278 278 278 278 278 277 276 275 275 275 275 275 275 274 274 273 274 274 274 275 276 277 277 277 278 278 278 279 279 279 279 279 279 280 280 282 284 288 289 290 290 290 292 293 292 292 293 295 297 299 301 302 302 303 304 304 305 305 306 307 307 308 309
285 284 284 284 283 283 283 282 282 282 282 280 280 280 280 280 280 279 279 279 278 278 280 278 278 278 277 277 277 277 276 275 274 274 274 273 273 274 274 275 274 274 275 277 278 278 278 278 278 278 278 278 278 279 279 278 283 285 287 287 288 288 289 290 291 291 291 292 293 294 294 295 297 298 300 302 303 304 305 305 305 306 306 307 307
284 284 283 283 283 283 283 282 281 281 281 280 280 280 280 280 279 279 279 279 278 279 278 278 277 277 277 277 277 276 276 275 276 276 275 274 274 273 274 274 274 274 276 277 277 277 277 277 277 278 278 278 278 279 280 281 281 286 284 284 285 287 288 290 290 289 290 291 292 292 293 294 295 295 297 299 302 303 304 304 304 305 306 306 306
284 284 284 283 283 282 282 281 281 281 281 280 280 280 280 279 279 279 279 278 279 279 278 278 278 278 277 277 277 277 276 276 277 276 276 276 275 273 274 274 272 274 275 275 274 276 277 277 277 277 277 278 279 279 279 280 280 283 283 282 283 284 285 287 287 288 289 290 290 291 292 293 293 294 296 297 299 301 302 302 302 304 305 305 306
284 284 285 284 284 283 283 282 282 281 281 281 280 280 280 279 279 279 278 279 278 278 278 278 278 278 277 277 276 277 276 276 276 276 275 275 273 273 273 273 273 273 274 274 274 274 275 276 276 277 277 277 277 278 278 278 277 282 282 280 279 282 284 286 288 289 289 289 289 290 290 291 292 293 294 296 298 299 300 300 301 302 303 303 304
285 285 285 284 284 283 283 282 281 281 281 280 280 280 280 279 279 279 279 278 278 278 278 277 277 277 277 277 277 276 276 276 276 276 276 276 275 274 273 271 272 272 272 274 274 275 276 275 276 275 276 278 277 277 276 276 279 281 281 277 277 280 282 285 288 288 288 288 289 289 289 289 290 292 292 292 294 295 297 298 299 300 300 301 301
285 285 284 284 283 283 283 282 281 281 281 280 280 280 279 279 279 278 278 279 278 277 277 277 277 277 276 276 276 276 276 276 276 276 276 276 275 275 274 273 270 269 272 271 273 273 275 274 275 276 276 276 277 276 279 277 276 281 279 277 276 277 280 283 286 287 287 288 288 288 288 288 289 290 291 291 291 292 292 293 294 295 295 296 296
285 285 284 284 284 283 282 282 281 281 281 280 280 280 279 279 279 278 278 278 278 277 277 277 277 276 276 276 276 276 276 276 276 276 276 276 275 275 275 274 273 271 269 270 272 272 274 275 275 275 275 276 275 276 275 275 278 279 276 276 276 276 279 283 285 286 286 287 287 287 287 288 288 289 290 290 291 292 293 293 293 294 295 295 296
285 285 284 283 283 283 282 282 281 281 280 280 280 279 279 279 279 278 278 278 277 277 277 277 276 276 276 276 276 275 276 275 275 276 275 275 275 275 274 274 274 272 271 270 271 273 273 275 275 275 275 275 276 276 276 274 279 278 276 276 276 276 280 282 283 284 285 286 286 287 287 287 288 288 289 290 290 291 292 292 292 293 294 295 296
284 284 283 283 283 283 282 281 281 280 280 280 280 279 279 278 278 278 277 277 277 276 276 276 276 276 275 275 275 275 275 275 275 275 275 275 275 275 274 274 274 274 272 272 268 273 274 273 274 275 274 274 275 274 275 275 277 277 276 275 275 278 280 279 281 283 284 285 285 286 286 287 287 288 288 289 290 291 292 292 292 292 293 294 295
284 284 283 283 282 282 282 281 280 280 280 280 279 279 279 278 278 277 277 277 276 276 275 276 276 275 275 274 275 274 274 274 274 274 274 274 274 274 273 273 273 273 273 272 270 270 274 273 273 275 274 274 274 273 273 275 276 278 275 275 275 279 277 276 279 281 282 283 285 285 286 286 287 288 288 288 289 290 291 291 291 292 292 293 294
284 283 283 283 282 282 281 281 280 280 280 279 279 279 278 278 278 277 277 276 276 275 275 275 275 275 275 274 274 274 274 274 273 273 273 273 273 273 273 272 272 272 271 271 269 269 271 274 273 273 274 274 273 273 273 273 274 275 277 275 275 275 275 275 276 279 281 283 284 285 286 287 287 288 288 288 289 290 290 290 290 291 291 293 293
284 283 283 283 282 282 281 281 280 280 279 279 279 278 278 277 277 277 276 276 276 275 275 274 274 275 275 274 273 273 274 273 273 272 272 272 272 272 272 272 271 271 272 270 270 269 268 271 272 273 272 274 271 273 272 273 273 275 274 275 276 275 275 275 275 276 280 282 283 285 286 287 287 288 288 288 289 289 290 290 290 290 290 291 291
283 283 283 283 282 282 281 281 280 280 279 279 278 278 278 277 277 276 276 276 275 274 274 274 274 274 274 273 273 273 272 272 272 272 272 271 272 271 271 271 271 271 271 271 270 268 268 269 272 271 272 272 272 272 274 274 275 275 274 274 275 276 276 276 276 276 280 282 284 285 286 287 287 288 288 288 288 288 288 289 289 289 289 290 290
283 283 283 282 282 281 281 280 280 279 279 279 278 278 278 277 276 276 275 275 275 275 275 274 274 274 273 273 272 272 272 271 271 271 271 271 271 271 271 271 271 270 271 271 271 269 269 268 270 271 272 272 273 273 274 275 274 274 275 275 275 275 276 277 276 276 279 282 284 285 285 286 286 287 287 287 287 287 288 288 288 288 289 289 289
283 282 282 282 281 281 281 280 280 279 279 278 278 277 277 277 277 276 275 275 275 275 274 274 275 273 273 272 272 272 271 271 270 270 271 270 270 270 270 270 270 270 271 271 270 270 269 268 269 271 273 273 273 273 274 273 274 275 275 275 276 276 276 276 277 277 280 282 283 284 284 285 285 286 286 286 286 287 287 287 288 288 288 288 288
282 282 282 281 281 281 281 280 280 279 279 278 277 277 277 276 276 275 275 275 274 274 274 274 274 273 273 272 272 271 271 270 270 270 270 270 270 270 270 270 270 270 270 270 270 270 270 269 270 270 272 272 272 273 274 274 274 274 275 276 276 276 276 276 277 278 278 278 278 278 280 281 282 283 285 285 286 286 287 287 287 287 287 286 287
282 281 281 281 281 281 281 280 279 279 278 278 277 277 276 275 275 275 274 274 274 273 273 273 273 273 272 272 271 271 271 271 270 270 270 270 270 270 270 270 270 270 270 270 270 270 270 270 271 272 272 273 273 272 274 276 275 275 274 275 275 276 277 277 276 278 278 278 280 282 281 281 282 282 283 284 285 286 286 286 286 286 285 285 286
282 281 281 281 281 281 280 280 279 279 278 277 277 276 276 275 275 274 274 273 273 272 272 272 272 272 272 271 271 271 271 271 270 270 270 270 270 270 270 270 270 270 269 270 271 271 271 271 271 271 272 272 273 275 276 275 275 275 276 275 273 274 275 276 276 275 276 277 276 277 279 280 280 281 282 283 283 284 284 284 284 283 283 284 285
282 282 282 281 280 279 279 279 278 278 277 277 277 276 275 275 275 274 274 273 272 272 271 271 271 271 270 270 271 271 271 273 274 273 273 273 270 269 270 270 270 271 271 272 272 272 272 272 271 273 272 273 274 274 273 273 274 274 275 276 275 275 274 274 275 276 277 276 276 276 276 277 276 277 277 276 277 280 280 281 282 282 282 284 285
282 281 281 280 280 279 279 278 278 277 277 277 278 280 279 275 274 274 273 272 272 271 271 270 270 270 270 270 271 274 274 275 275 276 276 276 275 272 271 271 271 272 271 271 271 272 272 271 272 272 272 272 273 273 273 275 276 276 275 275 273 273 274 274 275 276 277 276 275 275 276 278 277 277 277 276 278 279 278 278 278 280 281 284 285
281 280 280 279 279 279 278 278 277 277 277 277 280 282 282 280 275 273 272 272 272 271 270 270 269 270 270 270 270 273 274 275 275 277 277 277 277 276 276 276 276 274 272 272 272 273 272 272 273 273 273 272 273 275 274 275 276 275 274 273 273 273 273 272 270 274 278 276 276 275 275 278 277 276 277 277 278 278 278 278 282 283 284 285 286
280 280 279 279 279 278 278 278 277 277 276 279 282 283 283 282 278 273 273 272 271 271 270 270 270 270 270 270 271 272 273 274 274 275 277 278 278 279 279 279 279 279 279 276 275 274 274 273 273 273 273 273 274 274 275 275 274 273 274 274 274 273 273 272 272 271 276 278 275 274 273 276 277 276 275 276 277 277 278 281 283 284 285 286 286
279 278 279 279 278 278 277 277 276 276 276 280 282 283 283 282 281 276 272 272 271 271 271 270 270 271 271 271 271 272 273 276 276 275 275 276 279 280 279 279 279 279 279 280 280 278 277 275 274 273 274 274 274 274 275 274 275 273 274 274 274 274 273 273 273 274 276 276 273 271 270 272 273 273 273 275 276 277 278 281 283 284 285 285 286
278 278 278 278 278 277 277 277 276 276 275 280 283 283 283 283 281 277 271 272 272 271 271 271 271 272 272 272 272 273 274 275 276 275 275 275 274 274 274 275 274 275 277 278 278 278 278 276 275 274 275 276 274 274 275 276 275 274 274 273 274 274 274 273 274 273 273 274 271 270 268 270 272 272 272 273 275 276 277 279 283 284 285 285 285
278 278 277 277 277 277 276 276 276 275 274 280 283 283 283 283 282 278 271 272 271 271 271 272 273 273 274 274 274 274 274 275 275 275 274 273 273 272 272 272 273 273 274 274 274 275 275 276 276 275 275 276 275 275 276 277 277 276 276 275 275 273 272 272 271 271 271 272 272 270 266 269 272 272 272 273 275 275 276 280 282 283 284 285 285
278 278 277 277 276 276 276 275 275 274 274 280 283 284 284 284 283 274 271 271 271 271 272 273 274 275 275 275 275 274 274 274 276 278 276 274 272 271 271 272 273 273 274 276 278 279 278 277 276 276 276 277 279 278 279 278 278 278 276 274 272 270 268 266 266 268 268 271 272 270 268 268 272 271 271 274 275 274 276 276 281 283 284 284 285
277 277 276 276 276 275 275 274 274 273 273 279 283 284 284 284 281 272 271 271 272 272 272 274 274 275 275 275 275 274 274 273 276 278 278 276 272 271 271 272 273 274 274 276 278 279 279 280 280 281 281 281 281 281 281 281 279 277 272 268 267 267 266 265 265 266 267 269 270 271 269 268 270 271 271 274 275 275 275 277 278 281 283 284 285
276 276 276 275 275 275 274 274 274 273 272 277 282 284 284 284 279 272 272 272 272 273 273 274 275 275 275 277 276 274 273 273 277 278 279 277 273 273 273 273 272 272 273 275 275 276 279 279 278 278 278 279 279 279 279 278 277 276 269 266 268 268 266 265 264 265 266 268 269 272 269 269 272 272 270 271 272 272 274 275 277 278 281 282 284
275 275 274 274 274 273 273 273 275 274 272 275 282 283 284 284 278 273 273 272 272 273 273 274 274 274 275 276 276 274 274 274 277 278 279 278 274 273 274 273 272 271 273 275 274 273 273 273 272 273 274 275 273 271 272 275 275 273 270 268 267 265 264 264 265 265 264 266 271 273 268 268 269 270 270 267 267 270 273 274 275 276 277 278 279
Wind_Speed
7 7 6 6 6 5 6 6 5 6 5 4 4 5 4 4 4 4 4 4 4 5 3 3 3 4 5 4 5 5 5 5 5 5 5 5 5 7 13 13 13 12 11 11 10 11 10 11 11 11 12 13 14 14 14 13 14 14 15 15 15 15 15 15 15 16 16 17 16 16 17 17 18 19 18 18 17 17 17 17 16 15 15 14 14
7 6 8 7 6 5 5 5 6 5 5 6 5 5 6 5 4 4 5 4 5 3 3 4 4 4 4 4 5 5 5 5 5 5 5 5 5 5 10 12 13 12 12 11 11 11 11 11 11 11 11 12 14 14 13 12 12 13 14 15 15 15 15 14 15 15 16 17 18 18 16 16 17 18 19 20 20 19 18 18 17 17 16 15 14
6 7 6 7 6 6 6 5 6 5 5 5 3 4 4 5 5 5 5 5 5 3 4 4 3 4 3 4 4 4 5 5 5 5 5 5 5 4 5 10 11 12 12 12 12 12 12 12 12 11 12 13 14 14 13 13 12 13 14 15 15 15 15 15 15 15 16 17 17 18 18 18 19 19 20 20 20 21 21 21 20 19 18 17 16
6 6 7 7 7 6 6 6 6 5 5 5 5 4 5 4 4 4 3 4 4 3 2 3 3 3 3 3 3 4 5 5 5 5 5 6 5 5 5 5 9 12 12 13 13 13 13 13 12 12 13 14 14 14 13 13 13 14 15 16 16 15 15 15 15 16 17 17 17 18 18 18 18 18 18 19 19 20 20 21 21 21 21 20 18
7 7 7 7 6 6 6 6 6 6 4 4 5 4 5 5 4 3 4 3 3 3 2 2 3 3 3 3 4 4 3 4 4 5 5 5 6 5 5 4 4 8 10 12 13 14 14 13 13 13 14 14 15 14 14 14 15 15 16 16 16 15 15 15 16 17 17 18 18 19 19 19 18 18 18 18 19 19 20 21 21 21 21 21 21
7 6 6 6 6 6 7 6 6 4 5 5 5 5 5 5 3 4 3 4 4 3 3 4 3 2 3 3 3 3 3 3 4 4 4 4 5 5 5 5 5 5 5 9 12 13 14 14 14 14 14 14 14 14 14 15 15 15 15 16 15 16 16 16 17 17 18 18 19 19 20 19 19 19 18 18 18 18 19 20 21 21 21 21 20
7 8 7 7 7 6 6 6 6 4 6 4 5 5 5 5 4 5 3 3 3 3 3 2 3 4 4 3 3 3 2 3 3 3 4 4 4 4 5 5 5 4 5 5 7 11 13 13 13 14 14 14 15 15 15 15 15 15 16 16 16 16 16 17 17 18 18 18 19 19 20 20 19 19 18 18 18 18 18 19 21 22 22 20 20
8 7 8 7 7 7 6 6 5 6 6 5 5 6 5 4 2 4 5 2 2 3 2 2 2 3 3 3 2 2 3 2 3 3 3 2 3 3 4 4 3 5 5 5 5 6 12 12 13 14 16 16 16 16 16 16 16 16 17 17 17 17 17 17 18 18 18 18 19 19 20 20 20 19 18 18 18 18 18 19 19 21 22 22 21
8 8 7 7 7 6 6 6 5 6 6 5 5 5 6 5 2 1 1 4 2 2 2 3 4 3 3 3 3 3 3 2 2 1 2 2 3 2 3 3 3 4 5 5 5 6 7 10 11 13 15 17 17 18 17 17 17 18 18 17 17 17 17 18 18 18 19 19 19 20 20 20 20 19 19 19 19 19 19 19 19 20 21 21 23
8 8 7 7 6 6 6 6 6 6 6 6 6 5 4 5 5 2 2 3 3 3 3 3 3 4 4 4 4 4 3 2 1 1 2 3 3 4 4 3 4 3 3 3 2 3 3 5 10 13 14 16 17 18 18 18 18 18 18 17 17 17 17 18 18 18 18 19 19 20 20 20 19 19 19 19 19 19 19 19 19 19 20 21 21
9 8 8 8 7 7 7 6 6 7 6 6 6 5 4 3 5 5 3 3 4 2 1 1 2 3 4 4 4 4 4 2 1 2 2 3 3 4 3 5 3 3 3 2 2 3 3 4 6 6 7 14 16 17 18 18 19 18 18 18 18 18 18 18 18 18 19 19 19 19 19 19 20 20 20 20 21 21 20 20 20 20 20 20 21
9 9 8 8 8 7 7 6 6 7 8 8 7 6 7 6 5 6 6 3 3 1 2 1 1 4 4 4 4 4 4 3 3 3 3 5 5 4 5 4 4 3 3 3 3 4 5 5 5 5 5 8 14 16 18 18 19 19 18 19 19 19 19 19 20 20 19 20 20 20 20 20 20 20 20 20 21 21 22 22 22 22 22 22 22
9 9 9 8 7 7 7 6 6 7 7 8 7 7 5 6 6 3 4 3 3 3 2 2 4 4 3 4 6 4 3 3 3 6 5 5 4 6 4 3 4 4 4 4 4 4 4 5 5 6 6 6 6 11 15 17 17 19 19 20 20 20 20 21 21 20 20 20 20 20 20 21 21 21 21 21 21 21 22 22 23 23 24 23 23
9 9 8 9 9 8 8 9 8 7 5 5 5 5 6 5 6 5 2 3 1 3 3 1 6 2 1 3 5 4 3 2 1 2 3 3 4 5 4 5 6 5 5 6 5 5 5 6 6 6 4 5 5 6 6 7 9 18 19 20 21 21 21 21 21 21 21 21 21 21 21 21 21 21 21 21 21 21 22 22 23 23 23 23 24
9 9 9 9 9 9 9 8 8 7 7 7 6 7 6 7 5 7 5 3 3 1 4 1 4 2 1 3 2 2 3 1 1 0 1 1 2 3 4 4 5 4 5 5 6 6 5 4 4 3 3 3 4 4 5 6 8 17 18 19 19 20 20 20 20 21 21 21 21 22 22 22 22 22 22 22 22 23 23 23 23 24 24 23 23
10 10 8 8 9 10 7 7 8 7 8 9 8 7 7 6 5 5 8 4 1 0 1 2 3 6 2 2 1 1 1 2 4 5 1 1 2 2 3 3 4 4 4 5 5 5 5 5 4 3 2 1 3 3 4 4 9 11 14 15 17 18 19 19 20 20 20 21 22 23 23 23 22 22 22 23 23 23 23 24 24 24 24 24 24
10 10 9 10 8 8 8 8 8 7 7 8 9 9 8 7 7 7 6 8 5 2 0 1 0 1 5 4 2 1 3 1 2 5 2 1 0 0 1 1 2 3 3 4 3 3 4 5 5 4 2 2 2 3 3 3 4 4 6 8 13 15 16 18 19 19 21 22 23 22 22 22 23 23 24 24 24 25 25 25 25 25 24 24 24
9 10 9 8 9 8 8 8 8 8 7 7 6 6 7 8 8 8 6 3 7 6 2 0 1 2 2 2 2 2 4 2 1 1 4 0 2 1 1 2 0 1 3 3 4 4 4 5 5 5 2 2 2 3 3 3 3 3 4 6 13 13 14 16 18 19 21 22 22 22 23 24 24 25 25 25 25 25 26 26 26 26 25 25 24
10 10 9 9 8 8 8 8 8 7 6 7 8 9 8 8 6 6 6 6 7 5 7 5 2 2 3 3 5 3 4 5 3 2 2 3 0 2 3 3 1 1 3 4 4 4 5 5 6 5 3 2 2 3 3 3 4 4 7 10 11 12 13 15 16 17 19 20 21 22 24 25 25 26 25 25 25 26 26 27 27 27 26 26 25
11 10 10 10 9 9 8 8 8 8 8 8 9 7 6 4 5 4 5 7 7 9 7 7 7 4 2 4 5 4 3 4 2 4 3 1 5 2 2 3 2 4 5 5 3 4 5 6 6 4 4 2 2 2 2 3 3 3 3 9 10 12 13 14 15 15 17 19 21 23 24 25 25 25 25 25 25 25 25 26 27 27 27 27 26
10 11 11 11 10 10 9 9 9 9 8 7 6 7 9 9 8 7 7 6 5 4 8 8 6 8 7 2 5 4 4 2 3 3 4 4 5 3 3 3 4 6 5 3 3 3 4 6 6 5 3 3 3 2 2 2 2 2 4 8 10 13 14 15 16 18 19 20 21 23 23 24 25 26 26 26 26 25 25 25 25 27 27 28 27
10 10 11 11 10 10 10 11 10 9 8 8 7 7 7 7 8 7 7 7 4 6 7 7 5 6 6 8 6 4 2 2 2 3 1 3 5 4 1 2 8 3 1 6 3 2 5 7 6 5 5 4 3 2 2 2 2 2 4 8 11 12 14 17 19 20 20 20 20 21 23 24 25 25 26 26 26 26 26 25 26 25 25 26 27
10 10 11 11 11 10 10 10 8 8 8 8 9 9 8 8 6 6 7 8 7 7 4 5 6 7 6 8 9 10 8 7 7 5 4 3 2 5 3 4 4 11 2 3 5 8 5 6 6 5 4 4 3 2 2 2 1 3 6 10 10 13 17 19 20 19 19 19 20 22 22 22 24 25 26 26 26 26 27 27 27 27 26 26 26
10 10 10 11 11 10 10 9 9 9 10 8 7 7 7 7 7 7 7 6 6 7 7 8 7 6 6 6 6 6 5 5 6 6 6 4 3 6 6 2 4 6 3 5 7 8 5 5 6 5 5 4 3 2 1 0 1 6 7 9 13 15 17 19 19 19 19 20 21 21 22 23 24 25 25 26 26 27 27 27 28 27 27 27 27
12 13 13 15 12 12 11 11 10 9 9 8 8 8 8 8 8 8 8 9 9 9 9 10 10 10 9 6 6 6 6 5 6 6 4 4 4 3 3 1 5 9 6 6 3 2 6 6 6 5 4 4 2 2 2 4 3 7 9 5 13 14 17 18 19 19 19 20 21 22 22 24 25 26 26 26 27 27 28 28 28 28 28 27 28
15 16 15 15 12 13 13 12 11 10 10 11 10 9 9 9 9 9 10 8 8 9 9 8 7 6 6 8 7 7 6 6 6 6 6 6 5 5 3 2 2 8 5 4 3 5 2 5 4 4 3 3 1 2 4 3 3 8 11 7 9 15 17 19 19 20 21 21 22 23 23 24 26 26 27 27 28 28 28 28 28 28 28 28 28
13 13 11 14 15 13 13 13 12 12 11 11 10 10 9 8 8 9 8 8 9 9 8 9 9 9 8 7 7 6 7 7 7 7 7 7 7 6 6 3 3 4 5 3 5 6 10 3 1 2 4 3 3 4 3 3 4 9 10 7 7 14 18 20 21 23 23 23 24 24 25 26 27 28 28 28 28 29 29 29 29 29 29 29 28
10 10 12 13 14 14 13 14 13 12 12 12 12 11 11 11 9 9 10 6 9 10 8 9 9 9 8 6 6 7 6 7 7 7 7 6 6 6 6 5 4 4 3 4 3 7 7 6 3 2 1 3 3 2 3 4 2 9 7 5 5 7 14 19 21 22 23 24 24 25 26 26 27 28 29 29 29 30 31 30 30 30 30 29 29
11 10 11 12 13 14 14 14 14 13 13 13 13 12 12 11 11 11 11 9 9 11 8 9 8 8 7 8 7 7 7 6 6 6 7 6 6 6 6 7 6 3 1 3 3 4 3 5 2 3 1 2 2 4 5 4 7 10 7 7 7 7 12 20 21 21 22 23 24 25 26 27 28 29 30 30 31 31 31 32 31 31 31 31 30
10 10 11 13 12 13 13 14 14 14 15 14 13 13 12 11 11 11 10 9 9 7 8 8 8 8 7 6 6 7 6 7 7 7 7 7 6 6 6 6 6 8 5 4 6 4 6 2 2 2 1 1 2 4 4 5 10 11 7 7 8 8 17 20 21 22 23 24 25 26 27 27 28 29 30 30 31 32 32 32 32 32 31 32 31
12 11 12 13 13 13 13 13 13 14 13 13 13 12 13 11 10 10 9 10 10 10 8 8 8 8 9 9 7 6 7 7 7 6 6 6 6 6 6 6 6 6 6 5 3 5 4 4 2 1 1 2 2 3 3 4 5 7 6 6 8 13 19 15 20 22 23 24 25 26 27 28 29 30 30 31 31 32 32 32 32 33 33 32 32
11 13 13 14 14 14 13 12 12 12 14 13 13 13 12 11 11 10 10 11 10 10 9 7 7 8 9 9 9 8 7 7 6 6 6 6 6 6 6 6 5 5 5 6 8 12 3 3 2 2 3 4 5 6 5 4 4 8 5 6 8 13 9 8 14 20 22 24 25 26 27 29 29 30 31 31 32 32 33 32 33 33 33 32 32
14 14 14 15 14 14 13 13 13 13 14 14 13 12 12 12 11 11 10 11 11 9 9 9 8 9 9 9 9 8 7 8 7 6 6 6 6 6 5 6 6 5 6 7 8 10 8 6 7 4 2 0 3 3 7 5 6 5 7 7 8 7 8 8 9 14 20 23 25 26 28 28 29 29 30 31 31 32 32 33 33 33 31 31 32
14 15 16 14 14 14 14 14 13 13 13 13 13 13 14 13 12 10 11 12 11 10 10 11 10 9 9 9 8 8 8 8 7 7 7 6 6 6 6 6 6 6 6 6 7 8 11 2 7 4 3 3 5 4 6 8 7 7 9 9 7 7 8 7 8 9 18 22 25 26 28 28 29 30 31 30 31 32 33 33 33 32 33 32 32
13 14 15 15 15 15 14 14 14 14 14 14 13 14 15 15 15 13 12 13 14 13 13 13 12 10 10 9 9 8 6 8 7 6 6 6 6 6 6 5 6 6 5 6 4 6 9 8 4 6 3 4 4 6 6 6 8 7 10 8 8 7 6 9 10 9 16 23 25 26 27 28 28 29 30 31 31 31 30 32 32 32 32 32 33
14 13 14 15 15 16 16 15 16 16 15 14 14 13 14 15 14 14 13 13 12 12 13 12 12 12 12 10 9 9 8 8 7 7 6 6 6 6 6 6 6 6 5 5 6 7 6 9 4 4 5 5 4 4 7 7 8 8 7 10 7 8 9 9 10 10 12 21 24 24 26 28 29 29 30 31 30 30 31 30 31 30 31 32 32
14 13 13 14 15 16 17 18 17 16 16 15 14 14 12 11 12 12 13 13 12 12 12 12 12 12 11 11 10 10 9 9 7 8 7 9 7 6 7 6 6 5 4 5 6 6 8 10 11 5 6 6 5 5 5 8 7 8 8 10 10 10 10 9 8 8 15 22 24 26 27 28 29 29 30 30 30 29 29 29 30 30 31 32 32
13 14 15 14 15 18 18 17 17 17 15 16 16 15 14 12 11 11 11 11 11 11 11 10 11 11 11 11 10 10 11 11 10 8 8 9 7 7 7 6 5 4 5 5 5 6 8 9 9 11 4 8 8 4 5 5 9 14 11 8 8 7 7 7 7 7 7 8 9 11 16 19 23 28 28 27 29 30 29 29 29 30 30 30 30
15 15 14 16 15 16 17 16 16 17 16 15 14 14 14 13 13 13 12 11 11 10 10 10 10 10 10 10 10 11 11 10 10 10 9 9 8 7 7 6 5 5 6 5 6 7 7 8 8 8 10 5 7 10 4 7 9 8 13 14 9 3 8 9 11 9 8 12 15 21 21 20 22 20 26 30 30 30 30 29 29 30 30 30 31
15 15 16 16 15 14 14 15 15 15 15 15 15 15 14 15 14 14 13 13 12 10 10 9 9 10 10 10 9 10 10 9 9 8 9 8 7 7 6 6 6 6 6 5 5 6 6 7 7 9 7 10 10 8 6 6 7 7 5 12 20 15 10 9 8 12 12 12 14 11 11 13 16 20 24 26 29 29 30 29 30 32 33 33 33
12 14 13 13 13 13 12 13 14 14 15 16 15 16 16 16 14 14 14 13 13 12 10 10 9 9 8 8 8 8 9 10 13 10 10 8 6 7 5 6 6 6 5 4 4 4 5 6 8 8 11 11 9 9 8 7 11 10 13 11 14 14 15 17 11 6 10 14 13 12 10 6 9 11 10 11 13 17 20 26 24 32 34 34 33
14 13 14 14 15 16 15 14 14 14 14 13 15 23 20 16 16 13 12 12 13 12 12 11 9 9 8 8 7 13 14 15 14 14 14 14 12 8 6 6 7 7 5 4 4 4 5 6 5 8 10 10 10 9 12 10 11 13 11 13 17 16 15 14 15 5 7 12 15 15 10 6 11 13 11 12 13 13 14 14 15 18 24 31 33
14 14 14 16 16 16 17 17 17 15 14 12 21 25 25 23 16 14 14 13 12 11 11 12 12 11 9 8 7 11 12 13 11 15 14 15 15 15 16 15 12 8 6 6 6 5 5 6 8 8 10 14 13 11 10 12 11 9 12 13 13 14 18 15 21 13 6 11 19 20 15 2 4 14 16 13 8 10 13 15 23 29 32 34 35
13 12 15 17 15 15 14 15 15 15 13 14 24 25 25 25 20 13 11 11 11 11 11 11 10 10 10 9 8 7 8 9 8 9 13 16 15 16 17 17 17 16 13 8 5 5 5 6 7 7 9 12 14 12 12 9 10 13 12 11 15 15 15 18 15 18 12 9 15 21 26 13 7 14 19 17 11 12 15 22 32 32 34 34 34
11 14 15 13 15 14 14 16 16 14 13 18 25 26 25 25 25 17 11 11 12 11 11 11 11 10 9 9 8 8 7 15 11 9 8 9 14 17 16 16 15 14 13 14 14 9 6 7 8 10 10 13 13 12 8 11 15 16 16 14 12 13 16 19 18 14 13 10 14 20 24 20 8 11 17 18 12 13 14 22 30 31 34 33 34
12 12 12 15 13 14 15 15 14 13 13 18 25 26 25 26 25 19 11 12 11 11 12 11 10 10 10 10 10 9 9 11 10 10 8 8 6 5 6 5 4 7 10 12 12 14 13 9 9 11 11 8 12 12 13 12 14 13 15 16 14 13 11 12 16 16 15 11 12 17 23 21 6 8 13 17 10 16 14 22 32 32 32 33 33
14 14 14 14 13 13 12 11 11 12 10 20 24 26 25 26 26 18 11 10 9 9 9 10 10 9 10 9 9 10 10 10 10 10 9 8 7 7 7 7 6 6 7 7 7 8 8 8 8 10 12 12 14 14 12 10 11 12 13 13 11 12 14 16 17 15 15 10 11 12 20 20 8 10 16 13 11 15 11 19 30 31 33 34 33
9 8 9 10 12 12 12 12 11 11 10 22 24 25 26 25 26 13 11 11 10 10 9 10 10 9 9 10 9 10 10 9 14 19 14 8 8 9 10 9 7 7 8 8 10 11 10 9 9 10 9 11 15 15 16 14 13 11 9 11 12 13 14 14 16 12 12 8 8 13 17 19 13 15 19 16 14 17 15 14 23 32 32 33 34
10 11 11 11 10 11 12 12 12 11 10 19 25 25 26 27 20 11 11 10 10 11 10 11 10 10 10 10 10 9 10 10 15 19 19 16 9 11 10 9 8 7 6 6 11 15 17 19 20 21 22 23 23 24 25 27 18 13 12 13 13 8 11 13 15 14 12 9 7 11 15 19 16 15 17 17 16 19 18 15 12 21 29 31 33
10 10 8 8 8 10 12 13 13 12 11 17 25 25 27 29 18 14 12 11 11 11 10 10 9 10 11 17 13 10 11 10 17 20 21 17 11 11 10 9 8 6 7 6 6 7 12 15 17 20 22 23 24 23 19 18 22 19 10 14 12 8 12 12 15 16 16 13 10 10 14 13 14 13 16 17 20 16 15 14 17 17 26 28 33
7 7 8 9 8 8 9 11 12 12 10 14 23 25 27 28 18 13 12 11 12 11 11 10 9 8 10 14 18 13 12 13 19 20 21 16 9 9 9 7 7 6 6 6 6 3 3 6 8 10 12 12 8 8 12 20 23 20 12 12 10 9 12 13 13 14 15 14 3 5 13 14 16 16 13 14 15 16 14 11 16 15 12 11 12
Wind_Direction
156 156 148 151 147 147 148 149 146 154 148 155 150 146 133 126 105 93 77 66 54 44 37 36 32 31 31 21 17 13 7 5 3 355 353 346 345 340 347 349 352 360 6 9 22 26 29 29 32 32 34 34 29 23 22 20 19 18 18 17 16 16 16 15 15 14 11 8 6 3 360 357 355 353 350 348 347 346 345 344 343 338 333 328 324
161 158 158 158 155 153 151 158 159 164 156 150 164 139 128 109 96 87 82 73 62 38 41 33 29 27 27 22 21 13 6 1 355 352 343 346 346 341 344 347 350 356 -0 8 24 27 30 30 29 28 30 30 24 20 23 21 20 19 19 18 15 14 14 15 16 13 11 9 7 5 4 3 2 360 357 355 353 349 344 340 339 339 336 332 328
162 163 159 157 159 159 164 162 162 173 164 150 149 131 121 113 112 105 94 85 73 49 50 40 24 23 18 26 17 15 11 1 352 347 349 345 344 344 340 345 347 350 356 5 22 25 29 29 25 23 28 26 18 16 20 19 19 19 19 17 14 12 13 13 13 10 8 7 6 4 2 3 1 358 356 355 353 353 352 349 343 337 335 334 330
166 169 165 162 164 166 164 163 172 171 160 148 136 128 119 115 108 100 103 101 96 74 63 64 37 17 3 23 21 26 15 3 353 349 345 346 343 342 344 341 343 349 355 1 13 20 29 30 28 27 28 20 14 14 18 18 17 18 16 13 12 9 10 9 9 8 6 5 4 2 360 358 357 355 353 352 351 350 349 347 345 343 340 335 332
173 174 169 166 163 162 165 174 171 165 155 146 130 126 114 107 97 108 96 104 94 60 82 84 43 3 6 16 26 28 18 6 356 355 353 344 343 337 339 343 343 345 352 1 7 13 21 23 25 23 19 15 13 15 17 16 14 11 11 11 9 8 8 8 7 4 4 4 1 359 356 353 352 352 350 349 349 348 347 345 343 341 339 339 335
168 173 169 166 168 170 169 171 171 162 147 141 134 135 120 110 112 92 79 80 78 49 42 31 11 344 12 17 34 29 16 10 9 359 349 347 336 338 341 345 349 348 347 358 8 12 17 20 20 19 17 14 14 15 15 12 8 6 7 8 7 6 7 6 4 3 2 0 358 356 353 351 350 348 348 348 349 349 347 346 343 341 337 336 336
174 170 174 171 170 172 177 173 161 154 145 149 135 122 120 125 131 100 82 70 73 64 64 57 8 358 352 6 16 14 31 21 12 10 4 342 339 343 346 347 347 348 359 4 5 7 17 19 20 19 17 14 12 12 10 8 5 3 5 5 4 3 3 2 1 359 359 357 355 354 351 349 347 346 346 346 348 348 347 345 343 340 338 335 333
175 173 171 176 175 174 174 162 162 149 145 142 131 131 127 121 132 130 107 77 74 40 31 34 3 347 344 4 6 21 27 33 26 12 346 346 352 344 343 347 353 1 12 7 11 5 10 16 21 21 16 11 9 9 9 5 3 3 2 1 -0 360 360 359 358 358 357 355 353 351 349 346 344 343 343 344 344 344 344 343 341 338 336 335 334
177 176 171 173 173 171 171 168 161 152 148 148 139 145 138 129 110 109 105 129 93 81 21 12 353 339 345 1 8 15 23 30 28 4 352 11 338 335 347 9 7 18 14 14 11 2 359 12 18 19 15 11 9 8 5 2 2 360 356 355 356 357 357 357 357 356 355 354 351 349 346 343 341 340 340 341 342 342 341 341 340 337 334 332 332
176 175 174 173 170 168 167 167 160 151 148 148 150 145 134 132 119 76 84 103 84 64 22 359 350 343 358 5 359 11 4 25 21 26 34 357 351 13 9 6 17 17 20 26 2 355 -0 6 17 18 14 10 9 5 1 359 358 354 352 353 354 355 357 357 356 356 354 351 348 346 343 341 339 338 339 340 340 340 339 339 338 336 334 331 330
176 174 171 170 167 168 169 172 162 156 149 145 146 148 138 128 125 108 81 95 112 96 66 351 359 354 5 2 1 2 2 17 41 20 13 3 5 11 14 12 10 13 19 8 349 10 21 19 25 18 8 8 8 3 359 358 356 352 351 352 353 355 356 356 355 354 351 348 346 344 342 339 338 338 339 339 340 340 339 338 336 335 333 331 329
179 176 172 170 169 172 171 171 167 159 156 156 161 162 158 137 133 126 116 87 60 72 28 57 55 50 16 11 22 5 19 44 46 29 20 19 10 6 7 345 15 357 3 346 2 24 22 18 25 17 14 6 7 4 358 357 355 351 352 352 353 354 354 354 352 350 349 348 346 345 343 341 340 339 339 340 340 340 338 337 335 333 332 330 328
180 174 177 171 171 166 167 175 172 170 169 170 162 156 153 147 136 122 122 94 37 18 12 60 52 9 9 18 18 18 46 58 83 40 40 28 13 6 343 17 10 11 344 348 16 14 15 12 11 13 10 9 3 2 357 355 354 351 353 353 353 353 351 350 349 349 349 347 346 344 343 341 340 339 338 339 338 338 336 334 332 331 329 328 327
178 180 175 173 169 173 176 178 174 173 164 150 152 151 145 144 145 87 42 117 80 353 334 58 29 83 54 338 360 2 39 82 146 355 15 41 11 350 353 19 12 354 346 4 2 7 7 7 7 2 -0 3 4 -0 352 351 351 352 353 353 352 349 348 348 348 348 348 347 345 344 343 341 339 337 337 336 337 336 335 333 330 329 327 326 325
179 181 178 180 177 173 181 174 175 163 153 158 160 156 161 159 162 135 104 54 93 2 355 40 131 101 143 78 354 22 341 4 328 321 4 357 31 333 1 14 1 349 337 352 358 358 353 358 345 341 342 2 5 358 349 349 348 352 353 352 350 346 346 346 346 347 347 346 345 342 339 337 336 336 336 336 335 334 333 332 330 328 327 325 323
181 182 180 181 178 180 171 174 177 177 167 160 166 166 163 166 154 143 133 112 68 38 9 352 123 130 43 89 180 111 41 279 320 304 50 122 59 307 15 2 349 351 359 349 335 336 335 329 320 309 311 3 10 358 356 352 351 351 348 346 344 343 344 344 345 345 345 344 341 337 335 334 334 335 335 334 333 332 330 329 327 325 323 321 320
180 182 182 182 180 177 176 178 173 177 172 166 172 176 176 174 165 155 159 143 161 157 297 2 226 212 147 108 55 31 221 227 19 288 344 47 40 324 29 2 345 352 333 309 315 316 322 318 309 306 314 8 6 9 357 353 353 346 344 339 333 341 343 343 343 344 343 340 336 333 332 332 333 332 332 331 330 329 327 326 324 321 320 319 317
181 183 184 177 181 181 177 172 177 176 182 177 163 154 175 177 185 170 158 165 139 141 129 248 345 12 80 120 157 174 173 228 112 255 329 354 308 263 225 261 226 298 294 288 301 307 313 309 305 300 323 348 7 -0 354 342 339 336 330 327 339 343 345 344 343 342 339 334 333 332 331 330 329 328 327 327 327 326 325 323 321 319 318 316 315
185 183 183 181 178 178 179 182 180 179 172 163 174 183 179 182 171 170 166 145 133 133 159 173 75 25 48 69 76 76 115 120 202 73 343 320 25 284 293 269 229 257 292 279 279 305 305 302 296 296 310 335 348 345 335 326 323 327 332 332 339 343 344 345 343 338 334 331 330 328 327 325 324 323 324 324 324 323 322 321 320 318 316 314 313
182 185 184 181 179 179 180 180 180 183 176 183 182 176 161 169 174 169 145 158 155 144 162 173 156 179 136 96 88 76 71 75 117 151 153 245 306 312 288 294 270 289 277 249 281 296 300 296 290 290 292 297 312 315 308 302 308 320 324 323 338 342 343 343 341 335 331 329 326 322 321 320 319 320 320 320 320 320 319 319 318 317 315 313 311
188 185 185 183 181 180 179 181 182 183 184 179 181 173 175 168 169 168 170 163 158 152 149 180 169 160 143 97 102 103 92 93 132 128 152 165 265 229 281 302 263 269 254 240 281 275 285 284 280 278 274 289 295 283 275 285 300 309 313 322 341 345 344 342 336 331 327 324 321 318 318 318 317 317 318 317 317 316 316 315 314 314 313 312 311
191 188 186 186 181 179 181 185 186 181 180 182 173 174 176 180 180 172 164 160 155 159 168 168 170 157 162 149 136 117 91 104 139 145 131 184 218 230 161 335 323 305 230 276 266 279 290 281 277 270 272 264 251 243 252 271 291 325 309 336 351 350 345 335 327 324 322 320 318 318 318 318 318 317 316 316 316 315 314 312 310 308 307 307 308
186 191 190 183 184 182 184 188 181 178 180 176 183 180 179 175 169 162 164 162 162 157 148 159 153 158 160 166 167 169 172 173 183 176 158 168 238 250 176 167 217 298 277 193 305 300 268 263 261 254 242 247 235 205 213 235 290 309 9 17 2 348 334 326 324 322 319 318 319 318 318 317 317 317 316 315 314 312 311 310 308 307 306 304 303
187 188 190 187 183 186 184 178 181 181 185 181 175 177 171 164 167 171 169 162 156 154 158 161 166 165 171 173 169 160 152 143 162 155 151 170 171 282 305 301 272 211 244 278 250 252 258 245 242 235 233 223 212 194 188 147 66 40 54 7 348 337 330 324 321 319 317 318 319 319 318 318 317 315 313 312 311 310 309 308 307 305 303 302 302
195 192 195 186 184 182 181 184 185 186 178 174 179 173 171 173 173 174 171 172 174 169 170 179 172 174 178 178 165 165 164 153 139 140 131 128 137 269 299 45 286 312 329 354 330 201 215 217 231 237 221 218 200 155 127 100 81 19 11 7 342 335 327 322 319 318 319 320 320 319 318 317 317 315 314 312 310 309 309 307 306 304 302 301 300
192 198 191 183 186 189 184 185 184 178 177 179 175 176 174 176 176 177 181 178 169 175 177 174 179 175 161 165 175 169 160 152 150 143 151 143 165 192 240 282 212 277 304 327 316 345 292 212 207 209 216 207 158 129 107 79 55 8 1 354 338 331 325 322 322 322 322 322 321 320 319 318 317 315 313 311 310 308 307 306 305 303 302 300 300
197 199 180 184 189 183 184 183 181 178 175 176 176 175 177 174 180 183 178 176 178 174 177 172 176 175 175 174 165 160 158 159 152 163 159 169 166 165 163 232 292 228 250 253 276 232 258 294 213 227 187 154 138 112 99 85 29 2 354 350 335 328 325 324 324 324 324 323 323 321 319 317 315 313 311 309 308 306 305 304 303 301 301 300 299
195 185 192 187 187 186 183 186 179 178 178 177 176 177 179 178 180 180 184 179 176 180 178 175 177 174 170 163 157 167 162 161 161 161 162 164 163 163 161 171 180 278 276 268 234 258 235 240 312 259 325 110 118 113 63 50 35 348 352 337 326 311 317 320 321 321 321 320 318 316 314 311 310 309 308 307 306 305 303 301 300 299 299 298 297
191 183 184 191 193 190 185 183 182 180 178 180 180 181 180 182 181 181 185 181 178 183 172 177 173 165 166 174 170 164 165 158 157 157 161 160 165 169 175 178 177 181 249 272 249 253 275 186 203 309 65 108 70 36 23 11 349 347 343 336 319 311 313 317 318 317 315 312 311 308 306 306 306 305 305 304 303 302 301 300 299 299 298 297 296
180 184 183 187 193 193 192 188 184 180 182 180 180 181 179 186 185 187 184 171 176 173 178 171 169 165 164 168 170 167 164 161 162 160 159 165 166 172 177 179 173 193 205 243 267 222 272 252 215 252 57 138 42 4 16 348 342 339 329 318 312 306 310 314 315 313 311 309 307 305 303 302 302 301 300 300 300 299 299 298 298 298 298 297 296
184 179 183 186 190 194 194 192 186 185 181 181 179 180 182 182 182 182 176 176 178 180 179 172 171 165 169 174 173 170 167 162 158 159 162 161 167 167 171 167 192 192 211 226 268 255 217 258 297 309 185 267 338 339 334 336 320 303 300 296 297 298 305 306 306 304 303 302 301 300 299 299 299 299 298 297 296 296 295 294 294 294 294 294 293
184 182 185 187 188 190 194 193 191 188 185 183 181 180 180 185 180 180 180 177 180 181 176 176 169 172 169 175 180 173 169 156 159 160 161 161 158 165 167 178 191 193 192 215 235 254 223 264 269 274 302 306 327 322 305 288 273 281 273 274 278 291 298 292 292 294 294 295 295 295 295 295 294 293 293 293 293 292 292 292 292 292 292 290 289
183 185 186 189 187 189 189 191 191 192 189 185 183 178 181 183 183 182 175 180 181 179 172 174 176 173 178 178 180 176 164 161 161 161 163 162 161 167 173 177 195 196 190 218 238 270 267 260 274 254 259 125 289 267 288 283 286 284 280 278 283 287 285 286 286 283 286 288 289 289 290 291 288 288 288 290 290 289 291 291 290 290 289 288 287
182 186 187 184 185 185 187 191 192 194 194 190 183 180 182 182 183 179 179 180 180 179 176 181 180 180 177 175 178 173 171 160 161 168 165 165 167 172 186 185 200 201 202 201 246 260 285 253 283 258 239 226 256 245 261 294 291 291 291 291 285 282 286 281 282 282 281 284 285 286 288 286 285 285 287 287 289 290 290 290 289 287 287 286 286
188 188 187 184 183 183 186 188 190 192 194 192 189 186 187 184 181 181 181 182 182 179 183 185 181 174 173 178 179 170 162 161 170 169 163 170 168 181 192 189 200 207 204 215 223 260 272 281 255 282 198 214 231 279 277 276 283 284 286 284 289 286 274 282 281 282 279 282 283 286 285 286 284 284 287 288 290 289 288 289 288 288 287 286 286
186 192 186 184 180 183 186 187 190 192 191 191 191 193 191 186 183 182 180 185 186 186 185 180 177 177 178 173 180 171 165 164 169 168 173 167 177 182 191 201 201 205 210 208 224 245 275 288 247 272 280 290 262 264 285 282 284 282 272 287 279 276 282 276 273 275 272 275 281 284 285 287 287 287 287 288 288 288 289 287 288 287 288 288 287
192 184 188 184 184 183 187 189 189 190 192 189 188 191 192 189 187 181 183 184 187 188 187 183 180 177 177 181 172 170 168 166 173 176 175 179 181 183 196 198 202 207 211 217 230 240 263 271 287 273 288 284 267 280 266 288 291 284 294 290 293 291 282 268 266 263 265 271 275 279 280 282 285 286 286 286 286 285 286 287 286 287 287 288 289
190 192 188 187 189 191 190 189 187 187 186 188 189 188 186 182 183 185 184 186 187 187 185 183 180 180 179 176 174 172 174 176 179 173 176 180 178 189 195 198 197 208 214 228 235 243 254 267 283 299 284 309 310 277 296 298 310 311 301 286 281 277 274 284 269 268 269 267 276 273 269 270 270 275 280 282 282 284 286 286 287 286 288 287 285
191 192 193 191 194 191 192 186 186 184 185 186 185 185 184 183 182 182 182 185 186 185 187 183 181 180 179 175 174 178 180 178 172 175 175 177 184 189 192 189 201 202 219 227 234 245 253 274 281 283 298 290 285 302 295 294 290 285 303 310 299 246 284 292 297 290 285 280 268 270 276 280 281 282 283 282 283 284 285 285 286 286 286 285 282
197 195 192 195 195 193 190 187 187 181 181 183 184 184 184 183 182 183 182 182 181 183 181 182 181 182 180 177 176 179 180 177 174 170 171 179 172 185 186 188 195 206 219 229 240 250 268 279 287 300 299 301 301 288 291 291 299 295 291 312 309 312 302 288 287 304 299 283 285 282 261 270 275 272 272 275 276 277 279 281 280 281 279 277 277
197 196 193 192 189 192 190 188 184 183 185 187 184 184 183 185 184 181 180 180 178 177 177 179 181 178 177 177 177 178 180 179 178 175 178 176 170 173 184 181 201 209 222 227 239 257 274 283 288 292 294 299 297 307 315 321 313 310 313 309 299 303 308 308 301 279 276 290 290 280 282 266 267 270 271 265 263 265 267 267 271 272 273 274 274
192 189 188 190 191 190 187 187 186 187 191 191 188 185 183 180 178 177 175 179 178 177 175 175 178 179 177 175 179 183 185 186 186 187 190 193 189 178 179 187 201 211 211 215 233 251 269 271 265 294 300 297 302 306 307 306 306 308 309 312 307 309 306 302 297 304 296 299 295 289 276 266 283 284 265 265 276 270 268 262 260 263 268 273 274
193 189 187 190 194 190 188 187 188 192 193 191 186 186 185 179 174 174 175 177 177 175 177 175 176 176 176 175 172 187 188 190 191 193 195 199 200 198 202 205 206 205 205 220 229 221 241 261 281 287 288 293 297 303 300 306 307 309 311 307 303 307 310 315 311 314 131 335 308 305 302 112 299 296 289 278 269 267 269 267 270 275 277 278 275
192 187 194 196 191 189 191 189 191 192 192 187 186 186 183 180 175 172 171 170 172 175 175 176 174 172 172 169 174 180 185 185 181 192 200 203 204 209 214 218 220 218 215 214 229 247 253 267 275 273 289 288 297 298 300 311 310 305 300 300 302 304 304 302 298 299 316 337 319 309 297 300 303 286 290 287 285 275 272 275 281 280 283 279 276
185 192 198 187 194 191 189 191 193 191 193 185 186 184 182 180 176 168 171 167 171 175 174 174 174 172 168 168 169 179 187 188 185 187 190 202 209 213 221 226 231 235 244 252 257 261 273 273 275 280 277 288 290 289 301 305 303 298 302 299 300 293 293 290 290 303 310 345 311 295 292 299 323 285 283 286 294 287 283 281 283 281 281 278 276
192 196 193 196 193 192 193 192 192 190 189 185 184 184 182 180 175 167 167 168 171 173 173 174 172 168 166 167 166 172 176 185 185 181 173 188 186 199 214 223 229 241 246 255 261 268 272 271 275 275 280 281 282 287 288 288 293 293 299 295 295 291 293 293 303 301 298 315 295 296 293 294 324 290 282 286 287 278 270 278 282 281 280 279 277
192 193 192 194 195 193 191 189 189 190 188 184 185 184 183 179 174 161 161 165 166 168 169 170 170 163 167 166 165 169 173 180 184 168 162 167 171 191 201 210 214 213 217 224 233 240 250 256 262 267 271 270 272 276 280 278 275 282 285 296 312 310 301 299 293 288 293 294 287 283 280 293 319 289 282 284 284 277 270 280 280 281 279 279 277
196 189 195 192 189 189 189 185 187 188 182 186 186 185 182 178 171 156 162 164 164 164 165 169 171 168 165 163 166 171 172 174 180 183 179 168 180 191 201 208 209 215 217 221 235 246 251 253 252 256 254 259 272 278 285 292 295 295 307 312 311 307 304 298 288 295 286 292 274 282 284 293 303 298 292 290 284 279 276 265 276 279 278 277 276
190 193 195 190 187 184 185 187 187 186 180 189 188 185 182 177 165 153 161 161 164 165 169 169 169 169 169 169 172 167 174 174 184 190 188 182 188 197 203 207 205 207 222 237 256 263 267 268 270 276 281 285 288 288 289 291 294 310 320 309 294 305 295 297 292 295 284 292 270 271 280 287 291 290 291 295 300 299 297 291 274 274 277 276 276
193 194 184 185 187 186 185 189 188 183 184 189 189 186 183 182 161 160 164 165 165 165 166 168 168 172 174 176 173 172 178 180 186 192 192 189 187 195 195 197 200 210 235 242 250 254 263 274 279 282 283 284 285 287 293 301 298 301 301 284 290 302 284 282 286 292 295 289 280 270 271 275 296 306 305 300 294 278 276 283 284 280 278 276 273
185 172 178 184 185 185 189 188 184 183 178 188 191 190 183 182 162 162 163 166 164 169 167 165 169 166 176 183 183 180 182 183 190 193 196 195 185 191 191 192 200 213 227 233 241 257 273 277 270 267 272 279 290 301 295 295 290 290 282 277 288 280 276 279 278 289 292 285 254 297 297 296 299 295 303 302 294 290 282 284 291 290 280 269 266